[[{"header":{"parameterUnit":"m.s-1","parameterCategory":1,"la1":30.2991,"la2":30.254,"lo1":-89.0895,"lo2":-89.0444,"dy":0.0017,"dx":0.0017,"nx":28,"ny":28,"refTime":"2023-09-06T03:00:00:Z","depth":0,"parameterNumber":2,"parameterNumberName":"U-component_of_WINDS"},"data":[0,0,0,0,0,0,0,0,0,0,0,0,0,0,0,0,0,0,0,0,0,0,0,0,0,0,0,0,0,0,0,0,0,0,0,0,0,0,0,0,0,0,0,0,0,0,0,0,0,0,0,0,0,0,0,0,0,0,-3.6444,-3.6444,0,-3.6391,-3.6391,-3.639,-3.6299,-3.6298,-3.6296,-3.6294,-3.624,-3.6241,-3.6241,0,0,0,0,0,0,0,0,0,0,0,0,0,-3.6469,-3.6469,-3.6444,-3.6444,-3.6443,-3.6391,-3.6391,-3.639,-3.63,-3.6298,-3.6296,-3.6294,-3.624,-3.6241,-3.6241,0,0,0,0,0,0,0,0,0,0,0,0,0,-3.6441,-3.6469,-3.6445,-3.6392,-3.6387,-3.6391,-3.639,-3.639,-3.63,-3.6298,-3.6295,-3.6293,-3.624,-3.6241,-3.6241,-3.6293,0,0,-3.6241,-3.6242,0,0,0,0,0,0,0,0,-3.6443,-3.6441,-3.64,-3.6395,-3.639,-3.6349,-3.6379,-3.6357,-3.6301,-3.6333,-3.6294,-3.6292,-3.6279,-3.6276,-3.6271,-3.629,-3.6288,-3.6241,-3.6242,-3.6242,-3.6242,0,0,0,0,0,0,0,-3.6445,-3.6442,-3.6423,-3.64,-3.6393,-3.6371,-3.6365,-3.6375,-3.6321,-3.633,-3.6323,-3.6318,-3.6275,-3.6271,-3.6269,-3.6287,-3.6241,-3.6242,-3.6242,-3.6242,-3.6345,-3.6348,0,0,0,0,0,0,-3.6455,-3.6445,-3.6425,-3.6422,-3.6411,-3.6373,-3.6365,-3.6365,-3.632,-3.6311,-3.632,-3.6314,-3.6272,-3.6269,-3.6267,-3.6323,-3.6242,-3.6242,-3.6242,-3.6343,-3.6346,-3.6349,0,0,0,0,0,0,-3.6456,-3.6454,-3.6427,-3.6431,-3.6426,-3.6375,-3.6375,-3.6365,-3.6361,-3.6313,-3.6303,-3.6326,-3.627,-3.6267,-3.6287,-3.632,-3.6242,-3.6242,-3.6339,-3.6344,-3.6347,-3.6438,0,0,0,0,0,0,-3.6457,-3.6455,-3.6473,-3.6432,-3.6426,-3.6448,-3.6377,-3.6366,-3.6361,-3.6353,-3.6316,-3.6307,-3.6268,-3.6287,-3.6287,-3.6319,-3.6242,-3.6336,-3.6341,-3.6346,-3.6431,-3.6444,-3.6455,0,0,0,0,0,-3.6458,-3.6501,-3.6475,-3.6473,-3.6449,-3.645,-3.6446,-3.64,-3.6365,-3.6383,-3.6353,-3.6308,-3.6318,-3.629,-3.6289,-3.6322,-3.6334,-3.634,-3.6346,-3.6426,-3.6442,-3.6455,0,0,0,0,0,0,-3.6548,-3.6495,-3.6465,-3.6496,-3.6478,-3.6434,-3.6456,-3.6418,-3.641,-3.6402,-3.6345,-3.6338,-3.6365,-3.6346,-3.6316,-3.6369,-3.6319,-3.6325,-3.638,-3.6395,-3.6406,-3.6409,-3.6242,0,0,0,0,0,-3.6571,-3.6576,-3.653,-3.6562,-3.6555,-3.6508,-3.6506,-3.6472,-3.6451,-3.6443,-3.6414,-3.6395,-3.6393,-3.6394,-3.639,-3.6429,-3.6419,-3.6452,-3.6464,-3.6474,-3.6479,-3.6497,-3.651,-3.6368,-3.6368,-3.6368,0,0,-3.662,-3.6592,-3.6598,-3.658,-3.6561,-3.6568,-3.6502,-3.6511,-3.6515,-3.6444,-3.646,-3.6439,-3.6415,-3.6445,-3.6456,-3.6429,-3.6516,-3.6481,-3.649,-3.6489,-3.6504,-3.6518,-3.653,-3.6372,-3.6371,-3.6371,0,0,-3.671,-3.6691,-3.6714,-3.6698,-3.6671,-3.664,-3.6646,-3.6608,-3.6591,-3.6607,-3.6553,-3.6558,-3.6557,-3.6541,-3.6533,-3.662,-3.6578,-3.662,-3.6681,-3.67,-3.6711,-3.6721,-3.6749,-3.6761,-3.6626,-3.6626,-3.6627,0,-3.6774,-3.678,-3.6732,-3.6744,-3.6737,-3.6675,-3.6698,-3.6685,-3.6659,-3.6655,-3.6626,-3.6623,-3.6603,-3.6627,-3.6648,-3.6645,-3.6649,-3.6623,-3.6713,-3.6723,-3.6731,-3.6758,-3.6769,-3.6631,-3.6631,-3.663,-3.663,0,-3.6859,-3.6865,-3.6888,-3.6863,-3.6859,-3.6878,-3.6832,-3.6834,-3.6802,-3.6773,-3.679,-3.6763,-3.6752,-3.6756,-3.6725,-3.6777,-3.676,-3.6724,-3.6671,-3.675,-3.6774,-3.6784,-3.6639,-3.6637,-3.6635,-3.6634,0,0,-3.7002,-3.6951,-3.696,-3.6948,-3.6915,-3.6919,-3.6935,-3.6924,-3.6926,-3.6911,-3.6922,-3.6924,-3.6889,-3.688,-3.6846,-3.6863,-3.6931,-3.6823,-3.6822,-3.6842,-3.6985,-3.7011,-3.7024,-3.6905,-3.6907,-3.6908,-3.6986,0,-3.7083,-3.7106,-3.7064,-3.7097,-3.7101,-3.7043,-3.7056,-3.7038,-3.7013,-3.7013,-3.6985,-3.6986,-3.6941,-3.6935,-3.695,-3.692,-3.6959,-3.6914,-3.6913,-3.6914,-3.6918,-3.7037,-3.7064,-3.7139,-3.6995,-3.6997,-3.6998,0,-3.7181,-3.717,-3.7204,-3.7169,-3.7169,-3.7182,-3.7168,-3.717,-3.7148,-3.7128,-3.7119,-3.7079,-3.7092,-3.7044,-3.7061,-3.7032,-3.7029,-3.7015,-3.7017,-3.7012,-3.6959,-3.7033,-3.7161,-3.7172,-3.7013,-3.7012,-3.7011,0,-3.7279,-3.7274,-3.7292,-3.7285,-3.7244,-3.7255,-3.7239,-3.7214,-3.7211,-3.7199,-3.7196,-3.7187,-3.7182,-3.7176,-3.7135,-3.7104,-3.7156,-3.7105,-3.7139,-3.714,-3.715,-3.7149,-3.7277,-3.7153,-3.7153,-3.7153,-3.7153,0,-3.7373,-3.7395,-3.7336,-3.7347,-3.7371,-3.7322,-3.7347,-3.7325,-3.7304,-3.731,-3.726,-3.7267,-3.7214,-3.7215,-3.7184,-3.7201,-3.72,-3.7184,-3.7174,-3.7186,-3.7188,-3.7182,-3.7175,-3.7156,-3.7155,-3.7155,-3.7154,0,-3.7485,-3.7446,-3.7463,-3.7424,-3.7415,-3.7434,-3.74,-3.7409,-3.7382,-3.739,-3.7389,-3.7346,-3.7345,-3.7304,-3.7295,-3.7273,-3.7303,-3.7286,-3.731,-3.7304,-3.7339,-3.7336,-3.7465,-3.7479,-3.735,-3.7351,-3.7352,0,-3.7546,-3.7561,-3.7525,-3.7525,-3.7511,-3.7513,-3.7509,-3.7463,-3.7461,-3.7437,-3.7449,-3.7444,-3.7437,-3.7438,-3.7405,-3.7398,-3.7378,-3.7424,-3.7376,-3.7388,-3.7376,-3.7374,-3.7375,-3.7433,-3.7435,-3.7436,-3.7437,0,-3.7657,-3.7638,-3.7634,-3.7623,-3.762,-3.761,-3.7596,-3.76,-3.7549,-3.7549,-3.7547,-3.7542,-3.7533,-3.7528,-3.7514,-3.7497,-3.7459,-3.7453,-3.746,-3.7471,-3.7484,-3.7475,-3.7335,-3.745,-3.7448,-3.7447,-3.7447,-3.7446,-3.7744,-3.7755,-3.773,-3.7728,-3.7713,-3.7702,-3.7708,-3.7681,-3.7679,-3.7667,-3.7641,-3.7643,-3.7621,-3.7599,-3.7586,-3.7586,-3.7563,-3.7574,-3.7576,-3.7579,-3.7585,-3.7486,-3.7584,-3.7584,-3.7583,-3.7583,-3.7583,0,-3.7851,-3.7832,-3.7831,-3.7813,-3.7811,-3.7777,-3.776,-3.776,-3.7763,-3.7746,-3.774,-3.7738,-3.7733,-3.7701,-3.7692,-3.7699,-3.7681,-3.7698,-3.7696,-3.7692,-3.7607,-3.7601,-3.7713,-3.7713,-3.7713,-3.7713,-3.7713,-3.7713,-3.7906,-3.7922,-3.79,-3.7908,-3.789,-3.7892,-3.7885,-3.7874,-3.786,-3.786,-3.7856,-3.7835,-3.7811,-3.7801,-3.7795,-3.7786,-3.7784,-3.7806,-3.7791,-3.7711,-3.7699,-3.7686,-3.768,-3.7807,-3.7807,-3.7876,-3.7876,-3.7877]},{"header":{"parameterUnit":"m.s-1","parameterCategory":1,"la1":30.2991,"la2":30.254,"lo1":-89.0895,"lo2":-89.0444,"dy":0.0017,"dx":0.0017,"nx":28,"ny":28,"refTime":"2023-09-06T03:00:00:Z","depth":0,"parameterNumber":3,"parameterNumberName":"V-component_of_WINDS"},"data":[0,0,0,0,0,0,0,0,0,0,0,0,0,0,0,0,0,0,0,0,0,0,0,0,0,0,0,0,0,0,0,0,0,0,0,0,0,0,0,0,0,0,0,0,0,0,0,0,0,0,0,0,0,0,0,0,0,0,2.9092,2.9092,0,2.9102,2.9102,2.9103,2.9111,2.9111,2.9111,2.9111,2.9118,2.9119,2.9119,0,0,0,0,0,0,0,0,0,0,0,0,0,2.9078,2.9078,2.9092,2.9092,2.9092,2.9102,2.9102,2.9103,2.9111,2.9111,2.9111,2.9111,2.9118,2.9119,2.9119,0,0,0,0,0,0,0,0,0,0,0,0,0,2.9086,2.9078,2.9092,2.9098,2.9098,2.9102,2.9102,2.9103,2.9111,2.9111,2.9111,2.9111,2.9118,2.9119,2.9119,2.9117,0,0,2.9119,2.9119,0,0,0,0,0,0,0,0,2.9085,2.9086,2.9097,2.9097,2.9098,2.9105,2.91,2.9107,2.9111,2.9106,2.9111,2.9111,2.9114,2.9114,2.9116,2.9117,2.9118,2.9119,2.9119,2.9119,2.9119,0,0,0,0,0,0,0,2.9085,2.9086,2.9096,2.9097,2.9098,2.9099,2.91,2.9102,2.9109,2.9106,2.9107,2.9108,2.9114,2.9116,2.9116,2.9118,2.9119,2.9119,2.912,2.912,2.912,2.912,0,0,0,0,0,0,2.9084,2.9085,2.9096,2.9096,2.9092,2.9099,2.9101,2.9103,2.9109,2.911,2.9108,2.9108,2.9115,2.9116,2.9116,2.9116,2.9119,2.912,2.912,2.912,2.912,2.9119,0,0,0,0,0,0,2.9083,2.9084,2.9095,2.9091,2.9093,2.9099,2.9102,2.9103,2.9105,2.911,2.9111,2.9108,2.9115,2.9116,2.9117,2.9116,2.912,2.912,2.912,2.912,2.912,2.9113,0,0,0,0,0,0,2.9083,2.9084,2.9084,2.9091,2.9093,2.9097,2.9102,2.9103,2.9105,2.9106,2.9111,2.9112,2.9116,2.9117,2.9117,2.9116,2.912,2.912,2.912,2.912,2.9114,2.9113,2.9112,0,0,0,0,0,2.9082,2.9081,2.9084,2.9085,2.9093,2.9097,2.9097,2.9103,2.9105,2.9105,2.9109,2.9112,2.9116,2.9117,2.9118,2.9116,2.912,2.912,2.912,2.9114,2.9113,2.9112,0,0,0,0,0,0,2.9072,2.9082,2.9085,2.9087,2.9091,2.9098,2.9098,2.9101,2.9104,2.9105,2.911,2.9111,2.9112,2.9114,2.9115,2.9116,2.9119,2.9118,2.9114,2.9113,2.9113,2.9112,2.912,0,0,0,0,0,2.9071,2.9074,2.9082,2.9082,2.9084,2.909,2.9092,2.9096,2.91,2.9102,2.9106,2.9109,2.9111,2.9112,2.9115,2.9114,2.9116,2.9114,2.9113,2.9113,2.9112,2.9113,2.9112,2.9119,2.9119,2.9119,0,0,2.9066,2.9072,2.9073,2.908,2.9084,2.9086,2.9092,2.9094,2.9096,2.9102,2.9104,2.9107,2.9111,2.9111,2.9112,2.9113,2.9111,2.9112,2.9112,2.9112,2.9113,2.9112,2.9111,2.9119,2.9119,2.9119,0,0,2.906,2.9065,2.9066,2.907,2.9076,2.9081,2.9081,2.9088,2.9091,2.9093,2.9098,2.91,2.9103,2.9106,2.9108,2.9105,2.9108,2.9105,2.9102,2.9102,2.9102,2.9101,2.91,2.91,2.9105,2.9105,2.9105,0,2.9054,2.9059,2.9066,2.9068,2.9071,2.9078,2.9079,2.9083,2.9089,2.909,2.9092,2.9098,2.9101,2.9103,2.9102,2.9103,2.9104,2.9104,2.9101,2.9101,2.9101,2.91,2.9099,2.9105,2.9105,2.9105,2.9105,0,2.9051,2.9054,2.9054,2.9062,2.9064,2.9066,2.9073,2.9075,2.9079,2.9083,2.9086,2.909,2.9094,2.9094,2.9097,2.9097,2.9098,2.91,2.9103,2.91,2.9099,2.9099,2.9104,2.9104,2.9104,2.9104,0,0,2.9037,2.905,2.905,2.9054,2.9062,2.9064,2.9066,2.9071,2.9073,2.9077,2.9079,2.9083,2.9086,2.9088,2.9092,2.9092,2.909,2.9095,2.9095,2.9094,2.9089,2.9087,2.9087,2.9092,2.9092,2.9092,2.9089,0,2.9032,2.9038,2.9045,2.9047,2.9051,2.9058,2.906,2.9065,2.9069,2.9072,2.9077,2.9079,2.9083,2.9085,2.9085,2.909,2.9089,2.909,2.9093,2.9093,2.9092,2.9086,2.9084,2.9081,2.9089,2.9089,2.9089,0,2.9027,2.9032,2.9036,2.9045,2.9047,2.9048,2.9054,2.9057,2.9063,2.9066,2.9069,2.9074,2.9076,2.9079,2.9082,2.9083,2.9085,2.9087,2.9087,2.9087,2.9091,2.9087,2.908,2.908,2.9088,2.9088,2.9088,0,2.9017,2.9025,2.9029,2.9032,2.9042,2.9043,2.9048,2.9054,2.9057,2.9061,2.9063,2.9067,2.907,2.9073,2.9078,2.908,2.9081,2.9085,2.9084,2.9083,2.9083,2.9083,2.9077,2.9084,2.9084,2.9084,2.9084,0,2.9011,2.9012,2.9025,2.9027,2.9029,2.9037,2.9039,2.9044,2.905,2.9052,2.9059,2.9061,2.9068,2.9071,2.9076,2.9078,2.9079,2.9081,2.9082,2.9081,2.908,2.9082,2.9082,2.9084,2.9084,2.9084,2.9084,0,2.9,2.9008,2.9013,2.9023,2.9025,2.9027,2.9035,2.9037,2.9043,2.9046,2.9047,2.9055,2.9059,2.9066,2.9071,2.9074,2.9075,2.9077,2.9074,2.9074,2.9073,2.9073,2.9068,2.9068,2.9075,2.9075,2.9075,0,2.8995,2.8997,2.9008,2.9011,2.9016,2.902,2.9024,2.9032,2.9035,2.9043,2.9044,2.9049,2.9053,2.9059,2.9065,2.9069,2.9071,2.9069,2.9072,2.9071,2.9071,2.9071,2.9072,2.9068,2.9068,2.9068,2.9068,0,2.8986,2.8991,2.8996,2.9003,2.9008,2.9013,2.9019,2.9021,2.903,2.9034,2.9039,2.9042,2.9049,2.9053,2.9059,2.9062,2.9067,2.9067,2.9067,2.9066,2.9064,2.9065,2.9072,2.9067,2.9067,2.9067,2.9067,2.9067,2.8978,2.8981,2.8989,2.8995,2.9001,2.9007,2.901,2.9016,2.9021,2.9028,2.9032,2.9037,2.9044,2.9052,2.9055,2.9059,2.906,2.906,2.906,2.906,2.906,2.9064,2.906,2.906,2.906,2.906,2.906,0,2.8969,2.8976,2.8982,2.8991,2.8995,2.9001,2.9008,2.9011,2.9016,2.9022,2.9027,2.9033,2.9038,2.9045,2.905,2.9052,2.9054,2.9053,2.9053,2.9053,2.9058,2.9057,2.9051,2.9051,2.9051,2.9051,2.9051,2.9051,2.8966,2.897,2.8976,2.8984,2.899,2.8996,2.9,2.9005,2.901,2.9017,2.9022,2.9027,2.9033,2.9039,2.9044,2.9046,2.9048,2.9046,2.9048,2.9052,2.9053,2.9054,2.9053,2.9046,2.9046,2.9044,2.9044,2.9044]}]]